Weather History for KFOZ - October, 2012

Change the Weather History Date:

Monday, October 29, 2012

  Actual Average (KGPZ) Record (KGPZ)
Temperature  
Mean Temperature 36 °F -  
Max Temperature 42 °F 47 °F 76 °F (1950)
Min Temperature 30 °F 28 °F 13 °F (1988)
Degree Days  
Heating Degree Days 29    
Moisture  
Dew Point 28 °F    
Average Humidity 76    
Maximum Humidity 93    
Minimum Humidity 53    
Precipitation  
Precipitation 0.00 in - - ()
Sea Level Pressure  
Sea Level Pressure 30.28 in    
Wind  
Wind Speed 5 mph (ESE)    
Max Wind Speed 8 mph    
Max Gust Speed -    
Visibility 9 miles    
Events Snow    
Averages and records for this station are not official NWS values.
T = Trace of Precipitation, MM = Missing Value Source: NWS Daily Summary

Daily Weather History Graph

Daily Weather History Graph

Search for Another Location

Airport or City:

Trip Planner

Search our weather history database for the weather conditions in past years. The results will help you decide how hot, cold, wet, or windy it might be!

Date:

Astronomy

Oct. 29, 2012 Rise Set
Actual Time 7:55 AM CDT 6:00 PM CDT
Civil Twilight 7:23 AM CDT 6:32 PM CDT
Nautical Twilight 6:46 AM CDT 7:09 PM CDT
Astronomical Twilight 6:10 AM CDT 7:44 PM CDT
Moon 5:49 PM CDT (10/29) 7:48 AM CDT (10/29)
Length of Visible Light 11h 09m
Length of Day
10h 05m
Full, 100% of the Moon is Illuminated
Oct 29
Full
Oct 29
Full
Nov 6
Last Quarter
Nov 13
New
Nov 20
First Quarter

Hourly Weather History & Observations

Time (CDT) Temp. Windchill Dew Point Humidity Pressure Visibility Wind Dir Wind Speed Gust Speed Precip Events Conditions
12:13 AM 30.2 °F 25.4 °F 26.6 °F 86% 30.30 in 10.0 mi ENE 4.6 mph - N/A   Overcast
12:33 AM 30.2 °F 25.4 °F 26.6 °F 86% 30.30 in 10.0 mi ENE 4.6 mph - N/A   Scattered Clouds
12:53 AM 30.2 °F 26.7 °F 26.6 °F 86% 30.30 in 10.0 mi East 3.5 mph - N/A   Scattered Clouds
1:13 AM 30.2 °F 25.4 °F 28.4 °F 93% 30.30 in 10.0 mi East 4.6 mph - N/A   Mostly Cloudy
1:33 AM 30.2 °F 25.4 °F 28.4 °F 93% 30.30 in 10.0 mi ENE 4.6 mph - N/A   Mostly Cloudy
1:53 AM 30.2 °F 25.4 °F 28.4 °F 93% 30.30 in 10.0 mi East 4.6 mph - N/A   Overcast
2:13 AM 30.2 °F 26.7 °F 28.4 °F 93% 30.30 in 7.0 mi East 3.5 mph - N/A   Overcast
2:33 AM 30.2 °F 25.4 °F 28.4 °F 93% 30.30 in 7.0 mi East 4.6 mph - N/A Snow Light Snow
2:53 AM 30.2 °F 25.4 °F 28.4 °F 93% 30.30 in 7.0 mi East 4.6 mph - N/A   Overcast
3:13 AM 30.2 °F 26.7 °F 28.4 °F 93% 30.29 in 7.0 mi East 3.5 mph - N/A   Overcast
3:33 AM 30.2 °F 26.7 °F 28.4 °F 93% - 7.0 mi East 3.5 mph - N/A   Overcast
3:50 AM 32.0 °F - 28.4 °F 87% 30.29 in 7.0 mi North - - N/A   Overcast
3:54 AM 32.0 °F 28.7 °F 28.4 °F 87% 30.29 in 5.0 mi East 3.5 mph - N/A   Overcast
4:33 AM 32.0 °F 27.5 °F 28.4 °F 87% 30.29 in 5.0 mi East 4.6 mph - N/A Snow Light Snow
4:53 AM 32.0 °F 27.5 °F 30.2 °F 93% 30.28 in 4.0 mi ESE 4.6 mph - N/A Snow Light Snow
5:13 AM 32.0 °F 27.5 °F 30.2 °F 93% 30.28 in 5.0 mi East 4.6 mph - N/A Snow Light Snow
5:33 AM 32.0 °F 26.4 °F 30.2 °F 93% 30.28 in 5.0 mi ESE 5.8 mph - N/A Snow Light Snow
5:53 AM 33.8 °F 27.7 °F 30.2 °F 87% 30.28 in 5.0 mi ESE 6.9 mph - N/A   Mostly Cloudy
6:13 AM 33.8 °F 27.0 °F 30.2 °F 87% 30.27 in 7.0 mi ESE 8.1 mph - N/A   Mostly Cloudy
6:33 AM 33.8 °F 29.6 °F 30.2 °F 87% 30.28 in 7.0 mi ESE 4.6 mph - N/A   Mostly Cloudy
6:53 AM 33.8 °F 29.6 °F 30.2 °F 87% 30.28 in 10.0 mi SE 4.6 mph - N/A   Mostly Cloudy
7:13 AM 33.8 °F 28.6 °F 30.2 °F 87% 30.28 in 10.0 mi SE 5.8 mph - N/A   Overcast
7:33 AM 33.8 °F 29.6 °F 30.2 °F 87% 30.28 in 10.0 mi ESE 4.6 mph - N/A   Overcast
7:53 AM 33.8 °F 29.6 °F 30.2 °F 87% 30.28 in 10.0 mi ESE 4.6 mph - N/A   Overcast
8:13 AM 33.8 °F 28.6 °F 30.2 °F 87% 30.28 in 10.0 mi SE 5.8 mph - N/A   Mostly Cloudy
8:33 AM 33.8 °F 29.6 °F 28.4 °F 81% 30.29 in 10.0 mi SE 4.6 mph - N/A   Scattered Clouds
8:53 AM 33.8 °F 29.6 °F 28.4 °F 81% 30.28 in 10.0 mi SE 4.6 mph - N/A   Scattered Clouds
9:13 AM 33.8 °F 29.6 °F 28.4 °F 81% 30.29 in 10.0 mi SE 4.6 mph - N/A   Scattered Clouds
9:33 AM 35.6 °F 30.7 °F 28.4 °F 75% 30.30 in 10.0 mi SE 5.8 mph - N/A   Scattered Clouds
9:53 AM 35.6 °F 29.9 °F 28.4 °F 75% 30.30 in 10.0 mi SSE 6.9 mph - N/A   Scattered Clouds
10:13 AM 35.6 °F 30.7 °F 28.4 °F 75% 30.30 in 10.0 mi SE 5.8 mph - N/A   Scattered Clouds
10:33 AM 35.6 °F 31.7 °F 28.4 °F 75% 30.30 in 10.0 mi SSE 4.6 mph - N/A   Scattered Clouds
10:53 AM 37.4 °F 33.8 °F 28.4 °F 70% 30.30 in 10.0 mi SSE 4.6 mph - N/A   Scattered Clouds
11:13 AM 37.4 °F 34.9 °F 28.4 °F 70% 30.30 in 10.0 mi SE 3.5 mph - N/A   Clear
11:33 AM 39.2 °F 34.2 °F 28.4 °F 65% 30.30 in 10.0 mi SSE 6.9 mph - N/A   Clear
11:53 AM 39.2 °F 34.2 °F 28.4 °F 65% 30.30 in 10.0 mi South 6.9 mph - N/A   Scattered Clouds
12:53 PM 41.0 °F 36.4 °F 28.4 °F 61% 30.30 in 10.0 mi South 6.9 mph - N/A   Mostly Cloudy
1:53 PM 42.8 °F 38.6 °F 26.6 °F 53% 30.28 in 10.0 mi SSE 6.9 mph - N/A   Scattered Clouds
2:13 PM 42.8 °F 39.3 °F 28.4 °F 57% 30.28 in 10.0 mi South 5.8 mph - N/A   Scattered Clouds
2:33 PM 42.8 °F 39.3 °F 28.4 °F 57% 30.27 in 10.0 mi SE 5.8 mph - N/A   Mostly Cloudy
2:53 PM 42.8 °F 40.1 °F 26.6 °F 53% 30.27 in 10.0 mi SE 4.6 mph - N/A   Mostly Cloudy
3:13 PM 42.8 °F 38.6 °F 26.6 °F 53% 30.27 in 10.0 mi SE 6.9 mph - N/A   Mostly Cloudy
3:33 PM 42.8 °F 40.1 °F 28.4 °F 57% 30.27 in 10.0 mi SE 4.6 mph - N/A   Mostly Cloudy
3:53 PM 42.8 °F 39.3 °F 28.4 °F 57% 30.27 in 10.0 mi ESE 5.8 mph - N/A   Mostly Cloudy
4:13 PM 42.8 °F 40.1 °F 28.4 °F 57% 30.27 in 10.0 mi ESE 4.6 mph - N/A   Mostly Cloudy
4:33 PM 42.8 °F 40.1 °F 26.6 °F 53% 30.27 in 10.0 mi ESE 4.6 mph - N/A   Scattered Clouds
4:53 PM 42.8 °F 39.3 °F 28.4 °F 57% 30.27 in 10.0 mi ESE 5.8 mph - N/A   Mostly Cloudy
5:13 PM 41.0 °F 38.0 °F 28.4 °F 61% 30.27 in 10.0 mi East 4.6 mph - N/A   Mostly Cloudy
5:33 PM 41.0 °F 38.0 °F 28.4 °F 61% 30.27 in 10.0 mi East 4.6 mph - N/A   Overcast
5:53 PM 39.2 °F - 26.6 °F 61% 30.27 in 10.0 mi Calm Calm - N/A   Overcast
6:13 PM 39.2 °F - 28.4 °F 65% 30.28 in 10.0 mi Calm Calm - N/A   Overcast
6:33 PM 39.2 °F 37.0 °F 28.4 °F 65% 30.27 in 10.0 mi East 3.5 mph - N/A   Overcast
6:53 PM 39.2 °F 37.0 °F 28.4 °F 65% 30.28 in 10.0 mi East 3.5 mph - N/A   Overcast
7:13 PM 39.2 °F 37.0 °F 28.4 °F 65% 30.27 in 10.0 mi East 3.5 mph - N/A   Overcast
7:33 PM 37.4 °F 34.9 °F 30.2 °F 75% 30.28 in 10.0 mi East 3.5 mph - N/A   Overcast
7:53 PM 37.4 °F 34.9 °F 30.2 °F 75% 30.27 in 10.0 mi East 3.5 mph - N/A   Mostly Cloudy
8:13 PM 37.4 °F 33.8 °F 30.2 °F 75% 30.27 in 10.0 mi East 4.6 mph - N/A   Scattered Clouds
8:33 PM 35.6 °F 32.8 °F 30.2 °F 81% 30.27 in 10.0 mi East 3.5 mph - N/A   Clear
8:53 PM 35.6 °F 31.7 °F 28.4 °F 75% 30.27 in 10.0 mi ESE 4.6 mph - N/A   Clear
9:13 PM 35.6 °F 31.7 °F 28.4 °F 75% 30.27 in 10.0 mi East 4.6 mph - N/A   Clear
9:33 PM 35.6 °F 31.7 °F 28.4 °F 75% 30.27 in 10.0 mi ESE 4.6 mph - N/A   Clear
9:53 PM 33.8 °F 29.6 °F 26.6 °F 75% 30.28 in 10.0 mi ESE 4.6 mph - N/A   Clear
10:13 PM 33.8 °F 29.6 °F 26.6 °F 75% 30.28 in 10.0 mi ESE 4.6 mph - N/A   Clear
10:33 PM 33.8 °F 30.8 °F 26.6 °F 75% 30.28 in 10.0 mi ESE 3.5 mph - N/A   Clear
10:53 PM 33.8 °F - 26.6 °F 75% 30.28 in 10.0 mi Calm Calm - N/A   Clear
11:13 PM 33.8 °F - 26.6 °F 75% 30.28 in 10.0 mi Calm Calm - N/A   Mostly Cloudy
11:33 PM 33.8 °F 30.8 °F 26.6 °F 75% 30.28 in 10.0 mi SE 3.5 mph - N/A   Overcast
11:53 PM 35.6 °F 31.7 °F 26.6 °F 70% 30.27 in 10.0 mi ESE 4.6 mph - N/A   Overcast